Header for Extended Forecast Station List Page

Search by: ID | Name | Date | Parm | Value | Avg | % Avg
Sort by: ID | Name | Date | Parm | Value | Avg | % Avg

Enter search or view all records.

Click on id for station plot
#IDNameDateParmValueAvg% Avg
0LYDM8KOOTENAI-LIBBY DAM08-12-2019INFLOW (KAF)1218137189
1LEOI1KOOTENAI-AT LEONIA08-12-2019DISCHARGE (KAF)19541962100
2BFEI1KOOTENAI-AT BONNERS FERRY08-12-2019STAGE (FT)MMM
3FCFM8NF FLATHEAD-NEAR COLUMBIA FALLS08-12-2019DISCHARGE (KAF)18825573
4WGCM8MF FLATHEAD-NEAR WEST GLACIER08-12-2019DISCHARGE (KAF)14121067
5HHWM8SF FLATHEAD-HUNGRY HORSE DAM08-12-2019INFLOW (KAF)19223382
6CFMM8FLATHEAD-AT COLUMBIA FALLS08-12-2019DISCHARGE (KAF)892113479
7DLGM8CLARK FORK-AT DEER LODGE08-12-2019DISCHARGE (KAF)6053113
8DRMM8CLARK FORK-NR DRUMMOND08-12-2019DISCHARGE (KAF)147MM
9RCCM8ROCK CREEK-NEAR CLINTON08-12-2019DISCHARGE (KAF)6460107
10BONM8BLACKFOOT-NEAR BONNER08-12-2019DISCHARGE (KAF)12215877
11ABOM8CLARK FORK-ABOVE MISSOULA08-12-2019DISCHARGE (KAF)34736994
12BITM8BITTERROOT-NEAR MISSOULA08-12-2019DISCHARGE (KAF)18122780
13BELM8CLARK FORK-BELOW MISSOULA08-12-2019DISCHARGE (KAF)52760387
14STRM8ST. REGIS-NEAR ST. REGIS08-12-2019DISCHARGE (KAF)243180
15SRGM8CLARK FORK-AT ST REGIS08-12-2019DISCHARGE (KAF)68678587
16KERM8FLATHEAD-KERR DAM08-12-2019INFLOW (KAF)959136470
17NOXM8CLARK FORK-NOXON RAPIDS DAM08-12-2019INFLOW (KAF)2346295279
18CABI1CLARK FORK-CABINET GORGE DAM08-12-2019INFLOW (KAF)2580311183
19PRTI1PRIEST-NEAR PRIEST RIVER08-12-2019DISCHARGE (KAF)8418346
20ALFW1PEND OREILLE-ALBENI FALLS DAM08-12-2019INFLOW (KAF)2668347377
21HOPI1PEND OREILLE-PEND OREILLE LAKE NR HOPE08-12-2019LAKE ELEVATION (FT)MMM
22COEI1COEUR D ALENE-COEUR D ALENE LAKE08-12-2019INFLOW (KAF)23629779
23SPOW1SPOKANE-AT SPOKANE08-12-2019DISCHARGE (KAF)424MM
24LLKW1SPOKANE-AT LONGLAKE08-12-2019INFLOW (KAF)58368785
25SATI1ST MARIES-NEAR SANTA08-12-2019DISCHARGE (KAF)141978
26SJMI1ST JOE-AT ST MARIES08-12-2019STAGE (FT)MMM
27CIBW1COLUMBIA-AT INTL BOUNDARY08-12-2019DISCHARGE (KAF)16426MM
28LAUW1KETTLE-AT LAURIER08-12-2019DISCHARGE (KAF)10613181
29GCDW1COLUMBIA-GRAND COULEE DAM08-12-2019INFLOW (KAF)171631840593
30CHJW1COLUMBIA-CHIEF JOSEPH DAM08-12-2019INFLOW (KAF)163371923785
31TONW1OKANOGAN-NEAR TONASKET08-12-2019DISCHARGE (KAF)20428472
32PATW1METHOW-NEAR PATEROS08-12-2019DISCHARGE (KAF)8810881
33WELW1COLUMBIA-WELLS DAM08-12-2019INFLOW (KAF)166301950285
34CHDW1CHELAN-LAKE CHELAN DAM08-12-2019INFLOW (KAF)8418645
35RRHW1COLUMBIA-ROCKY REACH DAM08-12-2019INFLOW (KAF)169121996085
36ARDW1ENTIAT-NEAR ARDENVOIR08-12-2019DISCHARGE (KAF)182573
37PESW1WENATCHEE-AT PESHASTIN08-12-2019DISCHARGE (KAF)20025180
38WANW1COLUMBIA-WANAPUM DAM08-12-2019INFLOW (KAF)171141924389
39PRWW1COLUMBIA-PRIEST RAPIDS DAM08-12-2019INFLOW (KAF)171141955488
40KEDW1YAKIMA-KEECHELUS LAKE08-12-2019INFLOW (KAF)4335123
41KADW1KACHESS-KACHESS DAM08-12-2019INFLOW (KAF)2724111
42EASW1YAKIMA-AT EASTON08-12-2019DISCHARGE (KAF)12164188
43CLUW1CLE ELUM-CLE ELUM LAKE08-12-2019INFLOW (KAF)7877101
44TNAW1TEANAWAY-BELOW FORKS08-12-2019DISCHARGE (KAF)121584
45UMTW1YAKIMA-AT UMTANUM08-12-2019DISCHARGE (KAF)430413104
46BUDW1BUMPING-BUMPING LAKE DAM08-12-2019INFLOW (KAF)2924118
47CLFW1NACHES-NEAR CLIFFDEL08-12-2019DISCHARGE (KAF)9480118
48RILW1TIETON-RIMROCK LAKE NEAR RIMROCK08-12-2019INFLOW (KAF)586195
49NACW1NACHES-NEAR NACHES08-12-2019DISCHARGE (KAF)23194246
50PARW1YAKIMA-NEAR PARKER08-12-2019DISCHARGE (KAF)418220190
51KIOW1YAKIMA-AT KIONA08-12-2019DISCHARGE (KAF)694513135
52IPDI1HENRYS FORK-ISLAND PARK DAM08-12-2019INFLOW (KAF)13413599
53CHEI1FALL RIVER-NEAR CHESTER08-12-2019DISCHARGE (KAF)10092109
54ANTI1HENRYS FORK-AT ST. ANTHONY08-12-2019DISCHARGE (KAF)375323116
55TEAI1TETON-NEAR ST. ANTHONY08-12-2019DISCHARGE (KAF)13714396
56REXI1HENRYS FORK-AT REXBURG08-12-2019DISCHARGE (KAF)450395114
57JLKW4SNAKE-JACKSON LAKE AT DAM08-12-2019INFLOW (KAF)137129106
58JKSW4SNAKE-NEAR JACKSON08-12-2019DISCHARGE (KAF)864596145
59ALPW4SNAKE-NEAR ALPINE08-12-2019DISCHARGE (KAF)978714137
60PLDI1SF SNAKE-PALISADES DAM08-12-2019INFLOW (KAF)12611021123
61HEII1SNAKE-NEAR HEISE08-12-2019DISCHARGE (KAF)15371201128
62RIDI1WILLOW CREEK-RIRIE DAM08-12-2019INFLOW (KAF)86127
63SIFI1SNAKE-AB EAGLE ROCK NR IDAHO FALLS08-12-2019DISCHARGE (KAF)14381011142
64SHYI1SNAKE-NEAR SHELLEY08-12-2019DISCHARGE (KAF)1376855161
65SNAI1SNAKE-AT BLACKFOOT08-12-2019DISCHARGE (KAF)1096601182
66BFTI1SNAKE-NEAR BLACKFOOT08-12-2019DISCHARGE (KAF)1108626177
67PIHI1PORTNEUF-AT POCATELLO08-12-2019DISCHARGE (KAF)4939123
68AFRI1SNAKE-AMERICAN FALLS RESERVOIR08-12-2019INFLOW (KAF)17551288136
69MILI1SNAKE-AT MILNER08-12-2019DISCHARGE (KAF)3322115
70HOTI1BRUNEAU-NEAR HOT SPRINGS08-12-2019DISCHARGE (KAF)3322152
71SWAI1SNAKE-BELOW SWAN FALLS08-12-2019DISCHARGE (KAF)1926222387
72HWRI1BIG LOST-AT HOWELL RANCH NEAR CHILLY08-12-2019DISCHARGE (KAF)243080
73MACI1BIG LOST-MACKAY RESERVOIR NEAR MACKAY08-12-2019INFLOW (KAF)3717213
74HALI1BIG WOOD-AT HAILEY08-12-2019DISCHARGE (KAF)5449110
75MAGI1BIG WOOD-MAGIC DAM08-12-2019INFLOW (KAF)2928103
76LWRI1LITTLE WOOD-LITTLE WOOD DAM08-12-2019INFLOW (KAF)2015138
77OWYO3OWYHEE-OWYHEE DAM08-12-2019INFLOW (KAF)7455134
78ARAI1SF BOISE-ANDERSON RANCH DAM08-12-2019INFLOW (KAF)8568124
79LUCI1BOISE-LUCKY PEAK DAM08-12-2019INFLOW (KAF)304MM
80BIGI1BOISE-AT GLENWOOD BRIDGE08-12-2019DISCHARGE (KAF)196103189
81PARI1BOISE-NEAR PARMA08-12-2019DISCHARGE (KAF)306224136
82WRMO3MALHEUR-WARM SPRINGS DAM08-12-2019INFLOW (KAF)107150
83BERO3MALHEUR-AGENCY VALLEY DAM08-12-2019INFLOW (KAF)109108
84BULO3BULLY CREEK-BULLY CREEK DAM08-12-2019INFLOW (KAF)10198
85CSDI1NF PAYETTE-CASCADE DAM08-12-2019INFLOW (KAF)8975119
86DEDI1DEADWOOD-NEAR LOWMAN08-12-2019INFLOW (KAF)161888
87EMMI1PAYETTE-NEAR EMMETT08-12-2019DISCHARGE (KAF)456380120
88WSRI1WEISER-NEAR WEISER08-12-2019DISCHARGE (KAF)485097
89WEII1SNAKE-AT WEISER08-12-2019DISCHARGE (KAF)3177323098
90BRNI1SNAKE-BROWNLEE DAM08-12-2019INFLOW (KAF)33303296101
91WHBI1SALMON-AT WHITEBIRD08-12-2019DISCHARGE (KAF)1112113998
92TRYO3GRANDE RONDE-TROY08-12-2019DISCHARGE (KAF)17220983
93ANAW1SNAKE-NEAR ANATONE08-12-2019DISCHARGE (KAF)4276481389
94ORFI1CLEARWATER-AT OROFINO08-12-2019DISCHARGE (KAF)45650291
95DWRI1NF CLEARWATER-DWORSHAK DAM08-12-2019INFLOW (KAF)31137783
96SPDI1CLEARWATER-AT SPALDING08-12-2019DISCHARGE (KAF)13951144122
97LGDW1SNAKE-LOWER GRANITE DAM08-12-2019INFLOW (KAF)5671607093
98LGSW1SNAKE-LITTLE GOOSE DAM08-12-2019INFLOW (KAF)5671610393
99LMNW1SNAKE-LOWER MONUMENTAL DAM08-12-2019INFLOW (KAF)5687610993
100IHDW1SNAKE-ICE HARBOR DAM08-12-2019INFLOW (KAF)5687602594
101TCHW1WALLA WALLA-NEAR TOUCHET08-12-2019DISCHARGE (KAF)212680
102MCDW1COLUMBIA-MCNARY DAM08-12-2019INFLOW (KAF)235232662688
103GIBO3UMATILLA-NEAR GIBBON08-12-2019DISCHARGE (KAF)111669
104PDTO3UMATILLA-AT PENDLETON08-12-2019DISCHARGE (KAF)162371
105MYKO3MCKAY CREEK-NEAR PILOT ROCK08-12-2019DISCHARGE (KAF)43133
106UMAO3UMATILLA-NEAR UMATILLA08-12-2019DISCHARGE (KAF)6321297
107MONO3NF JOHN DAY-AT MONUMENT08-12-2019DISCHARGE (KAF)364189
108SERO3JOHN DAY-AT SERVICE CK08-12-2019DISCHARGE (KAF)717793
109JDAO3COLUMBIA-JOHN DAY DAM08-12-2019INFLOW (KAF)240662711089
110MODO3DESCHUTES-AT MOODY NR BIGGS08-12-2019DISCHARGE (KAF)1079114594
111TDAO3COLUMBIA-THE DALLES DAM08-12-2019INFLOW (KAF)247062852187
112PITW1KLICKITAT-NEAR PITT08-12-2019DISCHARGE (KAF)18419495
113HODO3HOOD-NEAR TUCKER BRIDGE08-12-2019DISCHARGE (KAF)123122101
114UNDW1WHITE SALMON-NEAR UNDERWOOD08-12-2019DISCHARGE (KAF)14716390
115BONO3COLUMBIA-BONNEVILLE DAM08-12-2019INFLOW (KAF)251582977085